Regional Weather Roundup
Issued by NWS Cleveland, OH

Home | Current Version | Previous Version | Graphics & Text | Print | Product List | Glossary On
Versions: 1 2 3 4 5 6 7 8 9 10 11 12 13 14 15 16 17 18 19 20 21 22 23 24 25 26 27 28 29 30 31 32 33 34 35 36 37 38 39 40 41 42 43 44 45 46 47 48 49 50
452
ASUS41 KCLE 250112
RWRCLE
OHIO REGIONAL WEATHER ROUNDUP
NATIONAL WEATHER SERVICE WILMINGTON, OH
900 PM EDT SUN SEP 24 2017

NOTE: "FAIR" INDICATES FEW OR NO CLOUDS BELOW 12,000 FEET WITH NO
SIGNIFICANT WEATHER AND/OR OBSTRUCTIONS TO VISIBILITY.

OHZ001>008-015>018-024>027-034-035-043-044-250200-
   NORTHWEST OHIO

CITY           SKY/WX    TMP DP  RH WIND       PRES   REMARKS
DEFIANCE       FAIR      77  62  59 E7        30.07R
FINDLAY        FAIR      79  64  60 E7        30.06S
TOLEDO EXPRESS FAIR      75  68  78 E5        30.07S
TOLEDO EXEC    FAIR      75  66  73 E6        30.08S
LIMA           FAIR      69  61  75 S3        30.07S
$$

OHZ009>014-019>023-028>033-038-089-250200-
   NORTHEAST OHIO

CITY           SKY/WX    TMP DP  RH WIND       PRES   REMARKS
CLE-HOPKINS    FAIR      79  67  66 NE6       30.10S
CLE-LAKEFRONT  FAIR      73  68  84 NE7       30.07S
CUY CO. ARPT   PTCLDY    77  68  73 E6        30.11R
LORAIN-ELYRIA  FAIR      69  61  75 NE5       30.09S
ASHTABULA      FAIR      70  68  93 CALM      30.12S
AKRON-CANTON   FAIR      76  60  57 NE6       30.10S
WOOSTER        FAIR      67  63  87 CALM      30.10S
MANSFIELD      FAIR      73  60  63 CALM      30.10S
YOUNGSTOWN     FAIR      75  67  76 NE10      30.11R
$$

OHZ042-051>053-060>062-070>072-077>081-250200-
  SOUTHWEST OHIO

CITY           SKY/WX    TMP DP  RH WIND       PRES   REMARKS
CINC-COVINGTON FAIR      74  53  48 SE3       30.06R
CINC-LUNKEN    FAIR      68  61  78 CALM      30.05R
HAMILTON       FAIR      65  60  84 CALM      30.06R
DAYTON         FAIR      75  55  49 E6        30.08R
WRIGHT-PAT AFB FAIR      75  59  57 CALM      30.06S
DAYTON GENERAL FAIR      75  54  47 E6        30.06R
WILMINGTON     FAIR      73  61  65 CALM      30.08R
$$

OHZ036-037-039>041-045>050-054>059-063>069-073>076-082>088-250200-
  CENTRAL AND SOUTHEAST OHIO

CITY           SKY/WX    TMP DP  RH WIND       PRES   REMARKS
COLUMBUS       FAIR      77  64  64 CALM      30.06S
OSU AIRPORT    FAIR      75  63  66 CALM      30.07R
BOLTON FIELD   FAIR      69  65  86 CALM      30.08R
RICKENBACK AFB FAIR      74  62  65 CALM      30.06R
NEWARK         FAIR      70  65  84 CALM      30.07R
MARION         FAIR      75  58  55 CALM      30.08S
LANCASTER      FAIR      69  65  86 CALM      30.08R
ZANESVILLE     FAIR      75  62  64 CALM      30.08R
NEW PHILLY     FAIR      70  65  84 CALM      30.09R
$$




USA.gov is the U.S. government's official web portal to all federal, state and local government web resources and services.